Flag for Kazakhstan Weather past 2 weeks in Aqtobe, Kazakhstan

Now
63 °F

Clear.


Feels Like: 63 °F
Forecast: 68 / 92 °F
Wind: 3 mph from Southwest

Location: Aktjubinsk

Current Time: Aug 22, 2014 at 5:51:05 AM

Latest Report: Aug 22, 2014 at 5:00 AM


Visibility: 10 mi

Pressure: 29.80 "Hg

Humidity: 32%

Dew point: 32 °F

Location of AqtobeLocation

Historic Weather in Aqtobe — Graph

°F

Aqtobe temperature yesterday

Maximum temperature yesterday: 104 °F (at 4:30 PM)
Minimum temperature yesterday: 63 °F (at 6:00 AM)
Average temperature yesterday: 83 °F

Past Weeks' High & Low Weather Summary

 TemperatureHumidityPressure
High104 °F (Aug 21, 4:30 PM)83% (Aug 13, 7:00 AM)30.07 "Hg (Aug 13, 7:00 AM)
Low50 °F (Aug 14, 5:00 AM)7% (Aug 20, 2:30 PM)29.68 "Hg (Aug 10, 2:00 PM)
Average78 °F33%29.89 "Hg
* Reported Aug 7 4:00 AM — Aug 22 4:30 AM, Aqtobe, Weather by CustomWeather, © 2014

Note: Actual official high and low records may vary slightly from our data, if they occured in-between our weather recording intervals... More about our weather records

Advertising

Aqtobe weather history for previous 24 hours

 ConditionsComfort  
Time TempWeatherWind HumidityBarometerVisibility
4:30 AM
Aug 22
63 °FClear.3 mph34%29.80 "HgN/A
4:00 AM66 °FClear.6 mph30%29.80 "HgN/A
3:30 AM66 °FClear.3 mph30%29.83 "HgN/A
3:00 AM66 °FClear.1 mph30%29.83 "Hg10 mi
2:30 AM68 °FPassing clouds.3 mph28%29.83 "HgN/A
2:00 AM72 °FClear.8 mph27%29.83 "Hg10 mi
1:30 AM70 °FClear.6 mph31%29.83 "Hg10 mi
1:00 AM68 °FClear.3 mph35%29.83 "Hg10 mi
12:30 AM70 °FClear.1 mph27%29.83 "Hg10 mi
12:00 AM72 °FClear.1 mph29%29.83 "Hg10 mi
11:30 PM
Aug 21
77 °FClear.6 mph28%29.83 "Hg10 mi
11:00 PM75 °FClear.3 mph25%29.86 "Hg10 mi
10:30 PM75 °FPassing clouds.3 mph21%29.86 "HgN/A
10:00 PM82 °FClear.3 mph15%29.86 "Hg10 mi
9:30 PM79 °FClear.3 mph17%29.86 "Hg10 mi
9:00 PM81 °FClear.6 mph16%29.86 "Hg10 mi
8:30 PM86 °FClear.3 mph14%29.86 "Hg10 mi
8:00 PM91 °FSunny.6 mph11%29.86 "Hg10 mi
7:30 PM93 °FSunny.6 mph11%29.86 "Hg10 mi
7:00 PM97 °FSunny.6 mph10%29.86 "Hg10 mi
6:30 PM99 °FSunny.6 mph10%29.86 "Hg10 mi
6:00 PM100 °FSunny.10 mph9%29.86 "Hg10 mi
5:30 PM102 °FPassing clouds.8 mph9%29.86 "HgN/A
5:00 PM102 °FSunny.10 mph8%29.89 "Hg10 mi
4:30 PM104 °FPassing clouds.10 mph7%29.89 "HgN/A
4:00 PM102 °FPassing clouds.13 mph8%29.89 "HgN/A
3:30 PM102 °FSunny.13 mph7%29.89 "Hg10 mi
3:00 PM102 °FSunny.15 mph8%29.92 "Hg10 mi
2:30 PM102 °FSunny.17 mph8%29.92 "Hg10 mi
2:00 PM102 °FPassing clouds.15 mph8%29.92 "HgN/A
1:30 PM100 °FPassing clouds.3 mph10%29.92 "HgN/A
1:00 PM100 °FClear.6 mph11%29.95 "HgN/A
12:30 PM97 °FClear.3 mph13%29.95 "Hg6 mi
12:00 PM95 °FClear.3 mph16%29.95 "Hg4 mi
11:30 AM91 °FClear.6 mph18%29.98 "Hg4 mi
11:00 AM90 °FClear.6 mph20%29.98 "Hg4 mi
10:30 AM88 °FClear.8 mph19%29.98 "Hg3 mi
10:00 AM86 °FClear.6 mph17%29.98 "Hg3 mi
9:30 AM82 °FSunny.8 mph17%29.98 "Hg10 mi
9:00 AM81 °FSunny.8 mph18%29.98 "Hg10 mi
8:30 AM77 °FSunny.3 mph19%29.98 "Hg10 mi
8:00 AM73 °FSunny.8 mph23%29.98 "Hg10 mi
7:30 AM70 °FSunny.8 mph25%29.98 "Hg10 mi
7:00 AM68 °FSunny.8 mph26%29.98 "Hg10 mi
6:30 AM64 °FSunny.8 mph30%29.98 "Hg10 mi
6:00 AM63 °FClear.6 mph32%29.98 "Hg10 mi
5:30 AM66 °FClear.8 mph28%29.98 "Hg10 mi
5:00 AM66 °FClear.8 mph28%29.98 "Hg10 mi
Weather by CustomWeather, © 2014

See weather overviewHow to use our weather pages